| time (UTC) | temp F | wind direction | speed MPH | gust MPH | rain 1hr in | rain 24hr in | rain mn in | humidity % | barometer mb |
| 20260902070041 | 73 | 224 | 1.0 | 5.0 | 0.00 | 0.02 | 0.00 | 90 | 1013.4 |
| 20260902064539 | 73 | 0 | 0.0 | 2.0 | 0.00 | 0.02 | 0.00 | 89 | 1013.5 |
| 20260902063035 | 74 | 244 | 0.0 | 1.0 | 0.00 | 0.02 | 0.00 | 89 | 1013.7 |
| 20260902061547 | 74 | 0 | 0.0 | 1.0 | 0.00 | 0.02 | 0.00 | 89 | 1013.8 |
| 20260902060051 | 75 | 0 | 0.0 | 2.0 | 0.00 | 0.02 | 0.00 | 89 | 1013.6 |
| 20260902054540 | 75 | 0 | 0.0 | 1.0 | 0.00 | 0.02 | 0.00 | 89 | 1013.6 |
| 20260902053048 | 75 | 0 | 0.0 | 0.0 | 0.00 | 0.02 | 0.00 | 89 | 1013.5 |
| 20260902051540 | 76 | 0 | 0.0 | 0.0 | 0.00 | 0.02 | 0.00 | 89 | 1013.6 |
| 20260902050033 | 76 | 0 | 0.0 | 1.0 | 0.00 | 0.02 | 0.00 | 89 | 1013.5 |
| 20260902044541 | 77 | 244 | 1.0 | 4.0 | 0.00 | 0.02 | 0.02 | 89 | 1013.5 |
| 20260902043038 | 77 | 286 | 1.0 | 5.0 | 0.00 | 0.02 | 0.02 | 88 | 1013.4 |
| 20260902041540 | 77 | 0 | 2.0 | 4.0 | 0.00 | 0.02 | 0.02 | 87 | 1013.4 |
| 20260902040040 | 78 | 0 | 0.0 | 5.0 | 0.00 | 0.02 | 0.02 | 87 | 1013.4 |
| 20260902034542 | 78 | 0 | 0.0 | 3.0 | 0.00 | 0.02 | 0.02 | 87 | 1013.4 |
| 20260902033035 | 78 | 0 | 0.0 | 5.0 | 0.00 | 0.02 | 0.02 | 87 | 1013.4 |
| 20260902031534 | 79 | 233 | 1.0 | 5.0 | 0.00 | 0.02 | 0.02 | 87 | 1013.5 |
| 20260902030037 | 79 | 190 | 1.0 | 5.0 | 0.00 | 0.02 | 0.02 | 87 | 1013.7 |
| 20260902024539 | 79 | 211 | 1.0 | 6.0 | 0.00 | 0.02 | 0.02 | 88 | 1013.7 |
| 20260902023043 | 79 | 242 | 1.0 | 6.0 | 0.00 | 0.02 | 0.02 | 87 | 1013.6 |
| 20260902021537 | 80 | 227 | 1.0 | 4.0 | 0.00 | 0.02 | 0.02 | 87 | 1013.5 |
| 20260902020052 | 80 | 296 | 0.0 | 2.0 | 0.00 | 0.02 | 0.02 | 86 | 1013.5 |
| 20260902014539 | 80 | 296 | 0.0 | 1.0 | 0.00 | 0.02 | 0.02 | 86 | 1013.4 |
| 20260902013040 | 81 | 0 | 0.0 | 0.0 | 0.00 | 0.02 | 0.02 | 85 | 1013.3 |
| 20260902011540 | 81 | 0 | 0.0 | 3.0 | 0.00 | 0.02 | 0.02 | 84 | 1013.0 |
| 20260902010036 | 82 | 0 | 0.0 | 2.0 | 0.00 | 0.02 | 0.02 | 84 | 1012.7 |
| 20260902004539 | 83 | 0 | 0.0 | 5.0 | 0.00 | 0.02 | 0.02 | 83 | 1012.4 |
| 20260902003040 | 84 | 185 | 2.0 | 6.0 | 0.00 | 0.02 | 0.02 | 82 | 1012.5 |
| 20260902001550 | 84 | 0 | 0.0 | 0.0 | 0.00 | 0.02 | 0.02 | 80 | 1012.4 |
| 20260902000043 | 85 | 0 | 0.0 | 0.0 | 0.00 | 0.02 | 0.02 | 79 | 1012.3 |
| 20260901234536 | 86 | 0 | 0.0 | 2.0 | 0.00 | 0.02 | 0.02 | 78 | 1012.5 |
| 20260901233054 | 87 | 0 | 0.0 | 4.0 | 0.00 | 0.02 | 0.02 | 75 | 1012.5 |
| 20260901231535 | 88 | 96 | 0.0 | 3.0 | 0.00 | 0.02 | 0.02 | 74 | 1012.8 |
| 20260901230039 | 88 | 40 | 2.0 | 4.0 | 0.00 | 0.02 | 0.02 | 75 | 1012.8 |
| 20260901224605 | 89 | 0 | 0.0 | 2.0 | 0.00 | 0.02 | 0.02 | 73 | 1012.9 |
| 20260901223034 | 89 | 65 | 1.0 | 3.0 | 0.00 | 0.02 | 0.02 | 74 | 1012.9 |
| 20260901221537 | 89 | 46 | 1.0 | 4.0 | 0.00 | 0.02 | 0.02 | 72 | 1013.0 |
| 20260901220105 | 89 | 135 | 0.0 | 5.0 | 0.00 | 0.02 | 0.02 | 71 | 1012.9 |
| 20260901214536 | 90 | 138 | 3.0 | 7.0 | 0.00 | 0.02 | 0.02 | 69 | 1012.9 |
| 20260901213034 | 91 | 0 | 1.0 | 5.0 | 0.00 | 0.02 | 0.02 | 68 | 1012.9 |
| 20260901211540 | 92 | 70 | 2.0 | 5.0 | 0.00 | 0.02 | 0.02 | 66 | 1013.1 |
| 20260901210044 | 93 | 315 | 2.0 | 8.0 | 0.00 | 0.02 | 0.02 | 62 | 1013.2 |
| 20260901204535 | 93 | 319 | 3.0 | 6.0 | 0.00 | 0.02 | 0.02 | 65 | 1013.2 |
| 20260901203038 | 93 | 208 | 2.0 | 6.0 | 0.00 | 0.02 | 0.02 | 64 | 1013.2 |
| 20260901201540 | 93 | 318 | 2.0 | 8.0 | 0.00 | 0.02 | 0.02 | 63 | 1013.3 |
| 20260901200034 | 92 | 0 | 1.0 | 5.0 | 0.00 | 0.02 | 0.02 | 65 | 1013.4 |
| 20260901194540 | 92 | 296 | 2.0 | 8.0 | 0.00 | 0.02 | 0.02 | 66 | 1013.6 |
| 20260901193034 | 93 | 215 | 2.0 | 8.0 | 0.00 | 0.02 | 0.02 | 68 | 1013.7 |
| 20260901191537 | 92 | 254 | 2.0 | 6.0 | 0.00 | 0.02 | 0.02 | 69 | 1013.6 |
| 20260901190037 | 91 | 234 | 5.0 | 11.0 | 0.00 | 0.02 | 0.02 | 69 | 1013.5 |
| 20260901184534 | 91 | 250 | 3.0 | 12.0 | 0.00 | 0.02 | 0.02 | 76 | 1013.7 |
| 20260901183034 | 89 | 268 | 2.0 | 11.0 | 0.00 | 0.02 | 0.02 | 77 | 1013.7 |
| 20260901181542 | 87 | 138 | 3.0 | 11.0 | 0.00 | 0.02 | 0.02 | 80 | 1013.5 |
| 20260901180040 | 86 | 128 | 3.0 | 9.0 | 0.02 | 0.02 | 0.02 | 82 | 1013.7 |
| 20260901174535 | 86 | 241 | 1.0 | 7.0 | 0.02 | 0.02 | 0.02 | 82 | 1014.1 |
| 20260901173039 | 86 | 0 | 2.0 | 6.0 | 0.02 | 0.02 | 0.02 | 84 | 1014.2 |
| 20260901171546 | 86 | 200 | 0.0 | 3.0 | 0.02 | 0.02 | 0.02 | 83 | 1014.2 |
| 20260901170057 | 86 | 200 | 2.0 | 5.0 | 0.00 | 0.00 | 0.00 | 80 | 1014.3 |
| 20260901164542 | 87 | 0 | 1.0 | 7.0 | 0.00 | 0.00 | 0.00 | 79 | 1014.5 |
| 20260901163042 | 87 | 188 | 1.0 | 5.0 | 0.00 | 0.00 | 0.00 | 79 | 1014.6 |
| 20260901161540 | 87 | 332 | 1.0 | 5.0 | 0.00 | 0.00 | 0.00 | 77 | 1014.7 |
| 20260901160046 | 87 | 298 | 1.0 | 5.0 | 0.00 | 0.00 | 0.00 | 78 | 1014.4 |
| 20260901154538 | 87 | 225 | 3.0 | 6.0 | 0.00 | 0.00 | 0.00 | 77 | 1014.4 |
| 20260901153038 | 86 | 0 | 0.0 | 5.0 | 0.00 | 0.00 | 0.00 | 80 | 1014.4 |
| 20260901151535 | 85 | 0 | 2.0 | 4.0 | 0.00 | 0.00 | 0.00 | 82 | 1014.4 |
| 20260901150056 | 84 | 305 | 0.0 | 3.0 | 0.00 | 0.00 | 0.00 | 81 | 1014.4 |
| 20260901144544 | 84 | 305 | 0.0 | 4.0 | 0.00 | 0.00 | 0.00 | 81 | 1014.4 |
| 20260901143040 | 84 | 205 | 1.0 | 6.0 | 0.00 | 0.00 | 0.00 | 83 | 1014.3 |
| 20260901141536 | 82 | 284 | 1.0 | 6.0 | 0.00 | 0.00 | 0.00 | 86 | 1014.3 |
| 20260901140039 | 80 | 321 | 1.0 | 4.0 | 0.00 | 0.00 | 0.00 | 92 | 1014.2 |
| 20260901134541 | 78 | 302 | 0.0 | 4.0 | 0.00 | 0.01 | 0.00 | 94 | 1014.2 |
| 20260901133039 | 76 | 208 | 1.0 | 7.0 | 0.00 | 0.01 | 0.00 | 94 | 1014.2 |
| 20260901131546 | 75 | 292 | 2.0 | 8.0 | 0.00 | 0.01 | 0.00 | 94 | 1014.3 |
| 20260901130042 | 74 | 0 | 1.0 | 6.0 | 0.00 | 0.01 | 0.00 | 94 | 1014.4 |
| 20260901124539 | 73 | 0 | 0.0 | 4.0 | 0.00 | 0.05 | 0.00 | 94 | 1014.5 |
| 20260901123045 | 73 | 170 | 1.0 | 4.0 | 0.00 | 0.05 | 0.00 | 94 | 1014.2 |
| 20260901121538 | 71 | 0 | 0.0 | 4.0 | 0.00 | 0.05 | 0.00 | 94 | 1014.1 |
| 20260901120040 | 70 | 176 | 1.0 | 8.0 | 0.00 | 0.05 | 0.00 | 93 | 1014.0 |
| 20260901114542 | 69 | 0 | 0.0 | 4.0 | 0.00 | 0.20 | 0.00 | 93 | 1013.8 |
| 20260901113052 | 69 | 194 | 0.0 | 3.0 | 0.00 | 0.20 | 0.00 | 92 | 1013.8 |
| 20260901111543 | 69 | 0 | 0.0 | 0.0 | 0.00 | 0.20 | 0.00 | 92 | 1013.7 |
| 20260901110042 | 70 | 0 | 0.0 | 0.0 | 0.00 | 0.20 | 0.00 | 92 | 1013.4 |
| 20260901104550 | 70 | 0 | 0.0 | 0.0 | 0.00 | 0.20 | 0.00 | 92 | 1013.3 |
| 20260901103042 | 70 | 0 | 0.0 | 0.0 | 0.00 | 0.20 | 0.00 | 92 | 1013.3 |
| 20260901101539 | 70 | 0 | 0.0 | 0.0 | 0.00 | 0.20 | 0.00 | 92 | 1013.3 |
| 20260901100047 | 71 | 0 | 0.0 | 0.0 | 0.00 | 0.20 | 0.00 | 92 | 1013.2 |
| 20260901094537 | 71 | 0 | 0.0 | 0.0 | 0.00 | 0.20 | 0.00 | 92 | 1013.3 |
| 20260901093039 | 71 | 0 | 0.0 | 0.0 | 0.00 | 0.20 | 0.00 | 92 | 1013.3 |
| 20260901091535 | 71 | 194 | 0.0 | 3.0 | 0.00 | 0.20 | 0.00 | 92 | 1013.3 |
| 20260901090038 | 71 | 0 | 0.0 | 0.0 | 0.00 | 0.20 | 0.00 | 91 | 1013.2 |
| 20260901084552 | 71 | 0 | 0.0 | 0.0 | 0.00 | 0.20 | 0.00 | 92 | 1012.9 |
| 20260901083039 | 71 | 0 | 0.0 | 0.0 | 0.00 | 0.20 | 0.00 | 92 | 1013.0 |
| 20260901081537 | 72 | 0 | 0.0 | 0.0 | 0.00 | 0.20 | 0.00 | 92 | 1013.0 |
| 20260901080042 | 72 | 0 | 0.0 | 0.0 | 0.00 | 0.20 | 0.00 | 92 | 1013.0 |
| 20260901074543 | 72 | 0 | 0.0 | 0.0 | 0.00 | 0.20 | 0.00 | 92 | 1012.9 |
| 20260901073039 | 72 | 0 | 0.0 | 2.0 | 0.00 | 0.20 | 0.00 | 92 | 1012.9 |
| 20260901071542 | 72 | 0 | 0.0 | 2.0 | 0.00 | 0.20 | 0.00 | 92 | 1012.8 |